Flag for Germany Weather past 2 weeks in Minden, North Rhine-Westphalia, Germany

Now
86 °F

Scattered clouds.


Feels Like: 88 °F
Forecast: 65 / 96 °F
Wind: 6 mph from East

Location: Bueckeburg

Current Time: Jul 3, 2015 at 7:54:59 PM

Latest Report: Jul 3, 2015 at 7:20 PM


Visibility: N/A

Pressure: 30.21 "Hg

Humidity: 52%

Dew point: 66 °F

Location of MindenLocation

Historic Weather in Minden — Graph

°F

Minden temperature yesterday

Maximum temperature yesterday: 91 °F (at 3:20 PM)
Minimum temperature yesterday: 72 °F (at 4:20 AM)
Average temperature yesterday: 81 °F

Past Weeks' High & Low Weather Summary

 TemperatureHumidityPressure
High91 °F (Jul 2, 3:20 PM)100% (Jun 22, 12:20 AM)30.27 "Hg (Jun 22, 12:20 AM)
Low48 °F (Jun 22, 11:20 PM)34% (Jul 2, 5:20 PM)29.65 "Hg (Jun 22, 9:20 PM)
Average63 °F70%30.05 "Hg
* Reported Jun 18 6:20 PM — Jul 3 6:20 PM, Minden, Weather by CustomWeather, © 2015

Note: Actual official high and low records may vary slightly from our data, if they occured in-between our weather recording intervals... More about our weather records

Advertising

Minden weather history for previous 24 hours

 ConditionsComfort  
Time TempWeatherWind HumidityBarometerVisibility
6:20 PM
Fri, Jul 3
86 °FPassing clouds.7 mph49%30.21 "HgN/A
5:20 PM86 °FPassing clouds.6 mph52%30.21 "HgN/A
4:20 PM86 °FPassing clouds.8 mph49%30.24 "HgN/A
3:20 PM84 °FPassing clouds.6 mph55%30.21 "HgN/A
2:20 PM82 °FPassing clouds.5 mph58%30.24 "HgN/A
1:20 PM81 °FPassing clouds.2 mph62%30.24 "HgN/A
12:20 PM79 °FScattered clouds.2 mph65%30.27 "HgN/A
11:20 AM75 °FPartly sunny.1 mph69%30.27 "HgN/A
10:20 AM72 °FBroken clouds.2 mph78%30.27 "HgN/A
9:20 AM72 °FBroken clouds.5 mph73%30.24 "HgN/A
8:20 AM68 °FThundershowers. Partly sunny.9 mph83%30.21 "HgN/A
7:20 AM68 °FThunderstorms. Broken clouds.6 mph88%30.24 "Hg5 mi
7:03 AM68 °FStrong thunderstorms. Partly sunny.6 mph94%30.24 "Hg2 mi
6:20 AM70 °FThunderstorms. Broken clouds.10 mph78%30.24 "Hg5 mi
5:20 AM70 °FThunderstorms. Passing clouds.3 mph78%30.21 "Hg6 mi
4:20 AM73 °FPartly cloudy.7 mph69%30.18 "HgN/A
3:20 AM75 °FPassing clouds.6 mph54%30.18 "HgN/A
2:20 AM79 °FPassing clouds.8 mph45%30.12 "HgN/A
1:20 AM81 °FPassing clouds.14 mph39%30.12 "HgN/A
12:20 AM82 °FPassing clouds.12 mph37%30.12 "HgN/A
11:20 PM
Thu, Jul 2
82 °FPassing clouds.14 mph40%30.09 "HgN/A
10:20 PM79 °FPassing clouds.3 mph51%30.12 "HgN/A
9:20 PM82 °FWarm.3 mph48%30.12 "HgN/A
8:20 PM86 °FPassing clouds.8 mph43%30.09 "HgN/A
7:20 PM88 °FPassing clouds.13 mph43%30.09 "HgN/A
Weather by CustomWeather, © 2015

See weather overviewHow to use our weather pages